Location: Caicarita
(10.0502°N, 67.6875°W)
Time: 11:45:39
(UTC+00:00)

Delta 168 - Pass Details

Date: 05 August 2024
Orbit: 392 x 1942 km, 25.3° (Epoch: 18 September)

Event Time Altitude Azimuth Distance (km) Brightness Sun altitude
Rises 22:53:55 0° 244° (WSW) 4,500 8.3 -1.2°
Reaches altitude 10° 22:57:29 10° 244° (WSW) 3,262 7.5 -2.0°
Maximum altitude 23:05:24 89° 153° (SSE) 921 4.0 -3.9°
Drops below altitude 10° 23:10:32 10° 65° (ENE) 2,164 5.4 -5.1°
Sets 23:12:31 0° 66° (ENE) 2,911 6.1 -5.6°
